Location: Crab Orchard
(37.7292°N, 88.8042°W)
Time: 05:13:04
(UTC+00:00)

YAOGAN 6 - Pass Details

Date: 08 December 2019
Orbit: 466 x 505 km, 97.0° (Epoch: 27 January)

Event Time Altitude Azimuth Distance (km) Brightness Sun altitude
Rises 23:09:36 0° 128° (SE) 2,503 5.9 -6.8°
Reaches altitude 10° 23:12:20 10° 104° (ESE) 1,639 4.8 -7.3°
Maximum altitude 23:14:21 15° 69° (ENE) 1,379 4.2 -7.6°
Drops below altitude 10° 23:16:23 10° 33° (NNE) 1,657 4.8 -8.0°
Sets 23:19:10 0° 10° (N) 2,551 5.9 -8.5°
